New Orleans, LA

6:28 AM CST on November 21, 2017 (GMT -0600)
New Orleans International

Weather History for KMSY - October, 2012

Change the Weather History Date:

Tuesday, October 30, 2012

  Actual Average Record
Temperature  
Mean Temperature 58 °F -  
Max Temperature 70 °F 77 °F 90 °F (2016)
Min Temperature 46 °F 56 °F 40 °F (1973)
Degree Days  
Heating Degree Days 7    
Growing Degree Days 8 (Base 50)    
Moisture  
Dew Point 35 °F    
Average Humidity 43    
Maximum Humidity 72    
Minimum Humidity 14    
Precipitation  
Precipitation 0.00 in - - ()
Sea Level Pressure  
Sea Level Pressure 30.09 in    
Wind  
Wind Speed 9 mph (NW)    
Max Wind Speed 13 mph    
Max Gust Speed -    
Visibility 10 miles    
Events      
Averages and records for this station are not official NWS values.
T = Trace of Precipitation, MM = Missing Value Source: NWS Daily Summary

Daily Weather History Graph

Daily Weather History Graph

Search for Another Location

Airport or City:

Trip Planner

Search our weather history database for the weather conditions in past years. The results will help you decide how hot, cold, wet, or windy it might be!

Date:

Astronomy

Oct. 30, 2012 Rise Set
Actual Time 7:13 AM CDT 6:15 PM CDT
Civil Twilight 6:49 AM CDT 6:39 PM CDT
Nautical Twilight 6:20 AM CDT 7:08 PM CDT
Astronomical Twilight 5:52 AM CDT 7:35 PM CDT
Moon 6:51 PM CDT (10/30) 7:55 AM CDT (10/30)
Length of Visible Light 11h 50m
Length of Day
11h 01m
Full, 99% of the Moon is Illuminated
Oct 30
Full
Nov 6
Last Quarter
Nov 13
New
Nov 20
First Quarter
Nov 28
Full

Hourly Weather History & Observations

Time (CDT) Temp. Dew Point Humidity Pressure Visibility Wind Dir Wind Speed Gust Speed Precip Events Conditions
12:53 AM 54.0 °F 33.1 °F 45% 30.13 in 10.0 mi North 12.7 mph - N/A   Clear
1:53 AM 53.6 °F 33.8 °F 47% 30.11 in 10.0 mi North 8.1 mph - N/A   Clear
2:53 AM 52.0 °F 34.0 °F 50% 30.13 in 10.0 mi North 10.4 mph - N/A   Clear
3:53 AM 51.1 °F 35.1 °F 54% 30.12 in 10.0 mi North 11.5 mph - N/A   Clear
4:53 AM 51.1 °F 35.1 °F 54% 30.11 in 10.0 mi North 10.4 mph - N/A   Clear
5:53 AM 50.0 °F 35.1 °F 57% 30.11 in 10.0 mi North 5.8 mph - N/A   Clear
6:53 AM 50.0 °F 36.0 °F 59% 30.12 in 10.0 mi NNW 4.6 mph - N/A   Clear
7:53 AM 46.9 °F 37.0 °F 68% 30.13 in 10.0 mi NW 3.5 mph - N/A   Clear
8:53 AM 53.1 °F 41.0 °F 64% 30.13 in 10.0 mi West 4.6 mph - N/A   Partly Cloudy
9:53 AM 59.0 °F 36.0 °F 42% 30.13 in 10.0 mi North 6.9 mph - N/A   Partly Cloudy
10:53 AM 61.0 °F 28.9 °F 30% 30.13 in 10.0 mi NNW 6.9 mph - N/A   Partly Cloudy
11:53 AM 63.0 °F 27.0 °F 26% 30.12 in 10.0 mi Variable 6.9 mph - N/A   Partly Cloudy
12:53 PM 64.9 °F 28.0 °F 25% 30.09 in 10.0 mi NW 8.1 mph - N/A   Partly Cloudy
1:53 PM 66.9 °F 30.9 °F 26% 30.07 in 10.0 mi NW 5.8 mph - N/A   Scattered Clouds
2:53 PM 66.0 °F 32.0 °F 28% 30.04 in 10.0 mi NNW 5.8 mph - N/A   Mostly Cloudy
3:53 PM 69.1 °F 33.1 °F 26% 30.02 in 10.0 mi NW 8.1 mph - N/A   Mostly Cloudy
4:53 PM 69.1 °F 32.0 °F 25% 30.02 in 10.0 mi NW 8.1 mph - N/A   Mostly Cloudy
5:53 PM 63.0 °F 33.1 °F 33% 30.01 in 10.0 mi West 6.9 mph - N/A   Scattered Clouds
6:53 PM 61.0 °F 34.0 °F 36% 30.03 in 10.0 mi NW 4.6 mph - N/A   Partly Cloudy
7:53 PM 59.0 °F 35.1 °F 41% 30.04 in 10.0 mi WSW 5.8 mph - N/A   Partly Cloudy
8:53 PM 57.0 °F 39.0 °F 51% 30.06 in 10.0 mi WSW 9.2 mph - N/A   Clear
9:53 PM 54.0 °F 43.0 °F 66% 30.06 in 10.0 mi WSW 6.9 mph - N/A   Clear
10:53 PM 53.1 °F 44.1 °F 71% 30.07 in 10.0 mi WSW 5.8 mph - N/A   Clear
11:53 PM 55.0 °F 46.0 °F 72% 30.06 in 10.0 mi WSW 8.1 mph - N/A   Clear